| time (UTC) | temp C | wind direction | speed KPH | gust KPH | rain 1hr cm | rain 24hr cm | rain mn cm | humidity % | barometer mb |
| 20260504150958 | 18 | 223 | 9.7 | 20.9 | 0.00 | 0.00 | 0.00 | 40 | 1016.9 |
| 20260504150455 | 18 | 156 | 6.4 | 9.7 | 0.00 | 0.00 | 0.00 | 40 | 1017.0 |
| 20260504140922 | 16 | 202 | 8.0 | 11.3 | 0.00 | 0.00 | 0.00 | 44 | 1017.7 |
| 20260504140418 | 17 | 321 | 6.4 | 11.3 | 0.00 | 0.00 | 0.00 | 44 | 1017.6 |
| 20260504130343 | 15 | 164 | 4.8 | 6.4 | 0.00 | 0.00 | 0.00 | 50 | 1018.3 |
| 20260504120306 | 13 | 208 | 1.6 | 3.2 | 0.00 | 0.00 | 0.00 | 48 | 1018.3 |
| 20260504110230 | 10 | 185 | 3.2 | 3.2 | 0.00 | 0.00 | 0.00 | 55 | 1018.2 |
| 20260504100148 | 6 | 203 | 0.0 | 0.0 | 0.00 | 0.00 | 0.00 | 70 | 1018.0 |
| 20260504090111 | 10 | 200 | 1.6 | 1.6 | 0.00 | 0.00 | 0.00 | 53 | 1017.5 |
| 20260504081541 | 10 | 186 | 0.0 | 0.0 | 0.00 | 0.00 | 0.00 | 53 | 1017.5 |
| 20260504081037 | 10 | 281 | 4.8 | 4.8 | 0.00 | 0.00 | 0.00 | 52 | 1017.4 |
| 20260504080534 | 10 | 211 | 3.2 | 3.2 | 0.00 | 0.00 | 0.00 | 52 | 1017.4 |
| 20260504050346 | 4 | 190 | 0.0 | 0.0 | 0.00 | 0.00 | 0.00 | 83 | 1016.8 |
| 20260504045843 | 4 | 190 | 0.0 | 0.0 | 0.00 | 0.00 | 0.00 | 83 | 1016.8 |
| 20260504045343 | 4 | 190 | 0.0 | 0.0 | 0.00 | 0.00 | 0.00 | 83 | 1017.0 |
| 20260504044841 | 4 | 190 | 0.0 | 0.0 | 0.00 | 0.00 | 0.00 | 83 | 1016.9 |
| 20260504044338 | 4 | 190 | 0.0 | 0.0 | 0.00 | 0.00 | 0.00 | 83 | 1016.9 |
| 20260504043835 | 4 | 190 | 0.0 | 0.0 | 0.00 | 0.00 | 0.00 | 82 | 1016.8 |
| 20260504043332 | 4 | 190 | 0.0 | 0.0 | 0.00 | 0.00 | 0.00 | 82 | 1016.7 |
| 20260504042829 | 5 | 190 | 0.0 | 0.0 | 0.00 | 0.00 | 0.00 | 82 | 1016.7 |
| 20260504042325 | 5 | 190 | 0.0 | 0.0 | 0.00 | 0.00 | 0.00 | 82 | 1016.7 |
| 20260504041822 | 5 | 190 | 0.0 | 0.0 | 0.00 | 0.00 | 0.00 | 81 | 1016.7 |
| 20260504041318 | 5 | 190 | 0.0 | 0.0 | 0.00 | 0.00 | 0.00 | 81 | 1016.6 |
| 20260504040815 | 5 | 190 | 0.0 | 0.0 | 0.00 | 0.00 | 0.00 | 81 | 1016.6 |
| 20260504040312 | 5 | 190 | 0.0 | 0.0 | 0.00 | 0.00 | 0.00 | 81 | 1016.5 |
| 20260504035808 | 5 | 190 | 0.0 | 0.0 | 0.00 | 0.00 | 0.00 | 81 | 1016.6 |
| 20260504035305 | 5 | 190 | 0.0 | 0.0 | 0.00 | 0.00 | 0.00 | 81 | 1016.6 |
| 20260504034802 | 5 | 190 | 0.0 | 0.0 | 0.00 | 0.00 | 0.00 | 81 | 1016.5 |
| 20260504034300 | 5 | 190 | 0.0 | 0.0 | 0.00 | 0.00 | 0.00 | 80 | 1016.6 |
| 20260504033757 | 5 | 190 | 0.0 | 0.0 | 0.00 | 0.00 | 0.00 | 80 | 1016.6 |
| 20260504033255 | 5 | 190 | 0.0 | 0.0 | 0.00 | 0.00 | 0.00 | 79 | 1016.7 |
| 20260504032751 | 5 | 190 | 0.0 | 0.0 | 0.00 | 0.00 | 0.00 | 79 | 1016.5 |
| 20260504032248 | 5 | 190 | 0.0 | 0.0 | 0.00 | 0.00 | 0.00 | 78 | 1016.7 |
| 20260504031745 | 5 | 190 | 0.0 | 0.0 | 0.00 | 0.00 | 0.00 | 78 | 1016.6 |
| 20260504031243 | 5 | 190 | 0.0 | 0.0 | 0.00 | 0.00 | 0.00 | 78 | 1016.6 |
| 20260504030738 | 5 | 190 | 0.0 | 0.0 | 0.00 | 0.00 | 0.00 | 77 | 1016.7 |
| 20260504030236 | 5 | 190 | 0.0 | 0.0 | 0.00 | 0.00 | 0.00 | 77 | 1016.5 |
| 20260504025732 | 5 | 190 | 0.0 | 0.0 | 0.00 | 0.00 | 0.00 | 75 | 1016.6 |
| 20260504025229 | 6 | 190 | 0.0 | 0.0 | 0.00 | 0.00 | 0.00 | 74 | 1016.5 |
| 20260504024726 | 6 | 190 | 0.0 | 0.0 | 0.00 | 0.00 | 0.00 | 74 | 1016.5 |
| 20260504024222 | 6 | 190 | 0.0 | 0.0 | 0.00 | 0.00 | 0.00 | 73 | 1016.6 |
| 20260504023719 | 6 | 190 | 0.0 | 0.0 | 0.00 | 0.00 | 0.00 | 72 | 1016.5 |
| 20260504023215 | 6 | 190 | 0.0 | 0.0 | 0.00 | 0.00 | 0.00 | 72 | 1016.5 |
| 20260504022712 | 6 | 190 | 0.0 | 0.0 | 0.00 | 0.00 | 0.00 | 71 | 1016.4 |
| 20260504022208 | 7 | 190 | 0.0 | 0.0 | 0.00 | 0.00 | 0.00 | 70 | 1016.6 |
| 20260504021706 | 7 | 190 | 0.0 | 0.0 | 0.00 | 0.00 | 0.00 | 69 | 1016.7 |
| 20260504021202 | 7 | 190 | 0.0 | 0.0 | 0.00 | 0.00 | 0.00 | 69 | 1016.8 |
| 20260504020659 | 7 | 190 | 0.0 | 0.0 | 0.00 | 0.00 | 0.00 | 68 | 1016.7 |
| 20260504020155 | 7 | 190 | 0.0 | 0.0 | 0.00 | 0.00 | 0.00 | 68 | 1016.6 |
| 20260504015652 | 7 | 190 | 0.0 | 0.0 | 0.00 | 0.00 | 0.00 | 67 | 1016.4 |
| 20260504015148 | 7 | 190 | 0.0 | 0.0 | 0.00 | 0.00 | 0.00 | 67 | 1016.6 |
| 20260504014644 | 7 | 189 | 0.0 | 0.0 | 0.00 | 0.00 | 0.00 | 67 | 1016.5 |
| 20260504014141 | 7 | 190 | 0.0 | 0.0 | 0.00 | 0.00 | 0.00 | 65 | 1016.6 |
| 20260504013639 | 8 | 189 | 0.0 | 0.0 | 0.00 | 0.00 | 0.00 | 64 | 1016.3 |
| 20260504013136 | 8 | 190 | 0.0 | 0.0 | 0.00 | 0.00 | 0.00 | 62 | 1016.4 |
| 20260504012633 | 8 | 190 | 0.0 | 0.0 | 0.00 | 0.00 | 0.00 | 61 | 1016.4 |
| 20260504012131 | 8 | 181 | 0.0 | 0.0 | 0.00 | 0.00 | 0.00 | 60 | 1016.3 |
| 20260504011627 | 8 | 196 | 0.0 | 0.0 | 0.00 | 0.00 | 0.00 | 59 | 1016.2 |
| 20260504011124 | 9 | 217 | 1.6 | 1.6 | 0.00 | 0.00 | 0.00 | 57 | 1016.2 |
| 20260504010620 | 9 | 194 | 0.0 | 0.0 | 0.00 | 0.00 | 0.00 | 56 | 1016.2 |
| 20260504010116 | 9 | 194 | 0.0 | 0.0 | 0.00 | 0.00 | 0.00 | 56 | 1015.9 |
| 20260504005613 | 9 | 194 | 0.0 | 0.0 | 0.00 | 0.00 | 0.00 | 56 | 1016.0 |
| 20260504005110 | 10 | 194 | 0.0 | 0.0 | 0.00 | 0.00 | 0.00 | 55 | 1015.9 |
| 20260504004608 | 10 | 194 | 0.0 | 0.0 | 0.00 | 0.00 | 0.00 | 54 | 1015.9 |
| 20260504004105 | 10 | 194 | 0.0 | 0.0 | 0.00 | 0.00 | 0.00 | 52 | 1015.8 |
| 20260504003600 | 10 | 193 | 0.0 | 0.0 | 0.00 | 0.00 | 0.00 | 51 | 1015.7 |
| 20260504003057 | 11 | 193 | 0.0 | 0.0 | 0.00 | 0.00 | 0.00 | 51 | 1015.7 |
| 20260504002555 | 11 | 193 | 0.0 | 0.0 | 0.00 | 0.00 | 0.00 | 49 | 1015.4 |
| 20260504002052 | 11 | 193 | 0.0 | 0.0 | 0.00 | 0.00 | 0.00 | 48 | 1015.4 |
| 20260504001550 | 11 | 193 | 0.0 | 0.0 | 0.00 | 0.00 | 0.00 | 43 | 1015.5 |
| 20260504001045 | 12 | 193 | 0.0 | 0.0 | 0.00 | 0.00 | 0.00 | 41 | 1015.2 |
| 20260504000543 | 12 | 188 | 0.0 | 0.0 | 0.00 | 0.00 | 0.00 | 42 | 1015.3 |
| 20260504000040 | 12 | 187 | 0.0 | 0.0 | 0.00 | 0.00 | 0.00 | 39 | 1015.3 |
| 20260503235538 | 13 | 178 | 0.0 | 0.0 | 0.00 | 0.00 | 0.00 | 38 | 1015.2 |
| 20260503235035 | 13 | 190 | 0.0 | 1.6 | 0.00 | 0.00 | 0.00 | 37 | 1015.0 |
| 20260503234532 | 13 | 190 | 0.0 | 0.0 | 0.00 | 0.00 | 0.00 | 37 | 1015.1 |
| 20260503234031 | 13 | 259 | 1.6 | 3.2 | 0.00 | 0.00 | 0.00 | 36 | 1014.8 |
| 20260503233527 | 13 | 163 | 0.0 | 0.0 | 0.00 | 0.00 | 0.00 | 36 | 1014.9 |
| 20260503233023 | 14 | 89 | 3.2 | 4.8 | 0.00 | 0.00 | 0.00 | 35 | 1014.7 |
| 20260503232520 | 14 | 343 | 3.2 | 3.2 | 0.00 | 0.00 | 0.00 | 34 | 1014.8 |
| 20260503232018 | 15 | 21 | 6.4 | 9.7 | 0.00 | 0.00 | 0.00 | 34 | 1014.8 |
| 20260503231515 | 15 | 167 | 1.6 | 1.6 | 0.00 | 0.00 | 0.00 | 33 | 1014.6 |
| 20260503231012 | 15 | 212 | 1.6 | 1.6 | 0.00 | 0.00 | 0.00 | 34 | 1014.7 |
| 20260503230508 | 15 | 9 | 6.4 | 6.4 | 0.00 | 0.00 | 0.00 | 33 | 1014.7 |
| 20260503230006 | 15 | 246 | 6.4 | 6.4 | 0.00 | 0.00 | 0.00 | 32 | 1014.4 |
| 20260503225503 | 15 | 169 | 3.2 | 4.8 | 0.00 | 0.00 | 0.00 | 32 | 1014.4 |
| 20260503224958 | 15 | 210 | 1.6 | 1.6 | 0.00 | 0.00 | 0.00 | 33 | 1014.4 |
| 20260503224455 | 15 | 258 | 1.6 | 1.6 | 0.00 | 0.00 | 0.00 | 31 | 1014.5 |
| 20260503223953 | 15 | 303 | 1.6 | 1.6 | 0.00 | 0.00 | 0.00 | 32 | 1014.4 |
| 20260503223451 | 15 | 330 | 8.0 | 11.3 | 0.00 | 0.00 | 0.00 | 31 | 1014.5 |
| 20260503222946 | 15 | 211 | 1.6 | 3.2 | 0.00 | 0.00 | 0.00 | 33 | 1014.3 |
| 20260503222445 | 15 | 195 | 6.4 | 11.3 | 0.00 | 0.00 | 0.00 | 31 | 1014.4 |
| 20260503221942 | 15 | 58 | 9.7 | 12.9 | 0.00 | 0.00 | 0.00 | 31 | 1014.4 |
| 20260503221440 | 15 | 82 | 3.2 | 4.8 | 0.00 | 0.00 | 0.00 | 32 | 1014.4 |
| 20260503220937 | 15 | 191 | 3.2 | 4.8 | 0.00 | 0.00 | 0.00 | 32 | 1014.4 |
| 20260503220433 | 15 | 282 | 9.7 | 12.9 | 0.00 | 0.00 | 0.00 | 31 | 1014.5 |
| 20260503215931 | 15 | 264 | 4.8 | 6.4 | 0.00 | 0.00 | 0.00 | 32 | 1014.5 |
| 20260503215427 | 15 | 306 | 4.8 | 4.8 | 0.00 | 0.00 | 0.00 | 31 | 1014.4 |
| 20260503214925 | 15 | 313 | 8.0 | 11.3 | 0.00 | 0.00 | 0.00 | 31 | 1014.4 |
| 20260503214423 | 15 | 246 | 3.2 | 6.4 | 0.00 | 0.00 | 0.00 | 31 | 1014.6 |
| 20260503213920 | 15 | 271 | 8.0 | 9.7 | 0.00 | 0.00 | 0.00 | 31 | 1014.3 |
| 20260503213418 | 15 | 260 | 6.4 | 9.7 | 0.00 | 0.00 | 0.00 | 31 | 1014.2 |
| 20260503212914 | 15 | 16 | 6.4 | 9.7 | 0.00 | 0.00 | 0.00 | 31 | 1014.2 |
| 20260503212412 | 15 | 24 | 3.2 | 3.2 | 0.00 | 0.00 | 0.00 | 33 | 1014.2 |
| 20260503211909 | 15 | 201 | 3.2 | 3.2 | 0.00 | 0.00 | 0.00 | 33 | 1014.1 |
| 20260503211405 | 15 | 214 | 3.2 | 3.2 | 0.00 | 0.00 | 0.00 | 33 | 1014.2 |
| 20260503210901 | 15 | 307 | 8.0 | 14.5 | 0.00 | 0.00 | 0.00 | 35 | 1014.2 |
| 20260503210358 | 15 | 348 | 14.5 | 22.5 | 0.00 | 0.00 | 0.00 | 33 | 1014.1 |
| 20260503205853 | 15 | 171 | 1.6 | 1.6 | 0.00 | 0.00 | 0.00 | 34 | 1014.3 |
| 20260503205350 | 14 | 318 | 6.4 | 6.4 | 0.00 | 0.00 | 0.00 | 34 | 1014.2 |
| 20260503204846 | 15 | 193 | 6.4 | 12.9 | 0.00 | 0.00 | 0.00 | 34 | 1014.2 |
| 20260503204343 | 15 | 262 | 4.8 | 6.4 | 0.00 | 0.00 | 0.00 | 34 | 1014.4 |
| 20260503203841 | 15 | 327 | 3.2 | 4.8 | 0.00 | 0.00 | 0.00 | 35 | 1014.2 |
| 20260503203338 | 14 | 246 | 8.0 | 12.9 | 0.00 | 0.00 | 0.00 | 34 | 1014.3 |
| 20260503202835 | 14 | 293 | 6.4 | 6.4 | 0.00 | 0.00 | 0.00 | 34 | 1014.2 |
| 20260503202333 | 14 | 347 | 8.0 | 14.5 | 0.00 | 0.00 | 0.00 | 34 | 1014.3 |
| 20260503201831 | 15 | 346 | 6.4 | 9.7 | 0.00 | 0.00 | 0.00 | 34 | 1014.6 |
| 20260503201328 | 15 | 346 | 6.4 | 9.7 | 0.00 | 0.00 | 0.00 | 34 | 1014.6 |
| 20260503200825 | 15 | 132 | 1.6 | 3.2 | 0.00 | 0.00 | 0.00 | 34 | 1014.3 |
| 20260503200321 | 15 | 113 | 4.8 | 9.7 | 0.00 | 0.00 | 0.00 | 36 | 1014.6 |
| 20260503195819 | 15 | 301 | 14.5 | 17.7 | 0.00 | 0.00 | 0.00 | 34 | 1014.3 |
| 20260503195315 | 15 | 289 | 4.8 | 4.8 | 0.00 | 0.00 | 0.00 | 38 | 1014.3 |
| 20260503194813 | 14 | 214 | 3.2 | 4.8 | 0.00 | 0.00 | 0.00 | 35 | 1014.7 |
| 20260503194308 | 14 | 246 | 6.4 | 11.3 | 0.00 | 0.00 | 0.00 | 36 | 1014.4 |
| 20260503193804 | 14 | 246 | 6.4 | 11.3 | 0.00 | 0.00 | 0.00 | 36 | 1014.4 |
| 20260503193300 | 14 | 210 | 6.4 | 9.7 | 0.00 | 0.00 | 0.00 | 35 | 1014.6 |
| 20260503192756 | 13 | 205 | 1.6 | 3.2 | 0.00 | 0.00 | 0.00 | 40 | 1014.4 |
| 20260503192252 | 13 | 12 | 6.4 | 11.3 | 0.00 | 0.00 | 0.00 | 37 | 1014.9 |
| 20260503191749 | 13 | 224 | 1.6 | 3.2 | 0.00 | 0.00 | 0.00 | 39 | 1014.8 |
| 20260503191246 | 13 | 322 | 6.4 | 6.4 | 0.00 | 0.00 | 0.00 | 39 | 1014.8 |
| 20260503190743 | 13 | 357 | 9.7 | 11.3 | 0.00 | 0.00 | 0.00 | 37 | 1014.9 |
| 20260503190239 | 13 | 234 | 6.4 | 9.7 | 0.00 | 0.00 | 0.00 | 40 | 1015.1 |
| 20260503185731 | 13 | 321 | 9.7 | 14.5 | 0.00 | 0.00 | 0.00 | 39 | 1015.3 |
| 20260503185226 | 13 | 321 | 12.9 | 16.1 | 0.00 | 0.00 | 0.00 | 38 | 1015.1 |
| 20260503184721 | 12 | 200 | 3.2 | 4.8 | 0.00 | 0.00 | 0.00 | 40 | 1015.3 |
| 20260503184218 | 12 | 157 | 3.2 | 4.8 | 0.00 | 0.00 | 0.00 | 42 | 1015.1 |
| 20260503183714 | 12 | 320 | 6.4 | 11.3 | 0.00 | 0.00 | 0.00 | 41 | 1015.2 |
| 20260503183212 | 12 | 0 | 6.4 | 11.3 | 0.00 | 0.00 | 0.00 | 41 | 1015.3 |
| 20260503182710 | 12 | 75 | 3.2 | 3.2 | 0.00 | 0.00 | 0.00 | 42 | 1015.4 |
| 20260503182208 | 12 | 259 | 6.4 | 16.1 | 0.00 | 0.00 | 0.00 | 42 | 1015.1 |
| 20260503181704 | 12 | 8 | 6.4 | 9.7 | 0.00 | 0.00 | 0.00 | 40 | 1015.5 |
| 20260503181201 | 12 | 294 | 8.0 | 12.9 | 0.00 | 0.00 | 0.00 | 41 | 1015.3 |
| 20260503180658 | 12 | 233 | 9.7 | 16.1 | 0.00 | 0.00 | 0.00 | 40 | 1015.2 |
| 20260503180156 | 11 | 310 | 1.6 | 1.6 | 0.00 | 0.00 | 0.00 | 42 | 1015.2 |
| 20260503175653 | 11 | 15 | 6.4 | 9.7 | 0.00 | 0.00 | 0.00 | 42 | 1015.2 |
| 20260503175150 | 12 | 22 | 4.8 | 4.8 | 0.00 | 0.00 | 0.00 | 41 | 1015.3 |
| 20260503174646 | 12 | 280 | 11.3 | 17.7 | 0.00 | 0.00 | 0.00 | 41 | 1015.2 |
| 20260503174144 | 13 | 272 | 6.4 | 9.7 | 0.00 | 0.00 | 0.00 | 38 | 1015.1 |
| 20260503173639 | 12 | 47 | 6.4 | 9.7 | 0.00 | 0.00 | 0.00 | 43 | 1015.2 |
| 20260503173136 | 12 | 220 | 6.4 | 9.7 | 0.00 | 0.00 | 0.00 | 41 | 1015.4 |
| 20260503172632 | 12 | 321 | 9.7 | 14.5 | 0.00 | 0.00 | 0.00 | 39 | 1015.0 |
| 20260503172129 | 12 | 332 | 8.0 | 11.3 | 0.00 | 0.00 | 0.00 | 40 | 1015.2 |
| 20260503171625 | 11 | 17 | 3.2 | 3.2 | 0.00 | 0.00 | 0.00 | 41 | 1015.4 |
| 20260503171123 | 12 | 337 | 14.5 | 20.9 | 0.00 | 0.00 | 0.00 | 39 | 1015.3 |
| 20260503170620 | 12 | 325 | 9.7 | 12.9 | 0.00 | 0.00 | 0.00 | 39 | 1015.3 |
| 20260503170116 | 12 | 6 | 8.0 | 11.3 | 0.00 | 0.00 | 0.00 | 39 | 1015.2 |